Temp
9 9 9 9 9 8 8 8 8 8 8 8 8 8 9 9 10 11 10 12 11 12 12 12 12 12 12 11 12 11 9 8 10 11 12 12 12 14 14 14 14 16 15 17 18
9 9 9 9 9 8 8 8 8 8 8 8 8 8 8 9 9 10 11 11 11 11 11 11 10 11 9 10 10 9 8 9 11 12 11 11 11 11 12 13 13 13 15 16 16
9 9 8 8 8 8 8 8 8 8 8 8 8 8 9 9 9 11 11 11 11 11 11 11 11 11 10 10 10 10 9 10 11 12 12 12 12 12 12 12 12 13 13 13 15
8 8 8 8 8 8 8 8 8 8 8 8 8 9 10 10 11 11 11 11 10 10 11 11 10 9 9 9 10 9 10 11 11 11 11 11 12 11 11 12 13 13 13 12 12
8 9 9 8 8 8 8 8 8 8 8 8 8 9 10 8 10 11 11 10 10 10 10 10 9 9 8 8 8 8 9 10 10 10 10 11 10 11 11 12 12 13 13 13 12
8 9 9 8 8 8 7 7 8 8 8 8 8 8 8 9 11 11 11 10 10 10 10 10 9 9 8 8 8 8 8 8 9 9 10 9 10 10 11 12 12 12 12 13 13
8 9 9 8 7 7 8 7 7 7 8 8 8 8 8 8 11 10 10 10 10 10 9 10 10 9 8 7 8 8 7 8 9 9 9 10 9 9 11 12 11 12 12 12 13
8 8 9 9 8 8 9 9 8 8 7 7 8 8 6 10 10 10 10 10 10 10 10 10 10 9 8 9 8 8 8 8 9 10 9 9 9 11 11 10 11 11 12 12 12
8 8 8 8 8 9 9 8 8 8 7 7 8 8 6 10 10 10 10 10 10 10 10 10 9 8 7 7 5 6 7 6 8 10 10 8 9 11 11 11 11 11 11 11 12
7 8 8 9 9 8 9 9 8 7 7 7 8 7 8 9 10 10 10 10 10 10 9 9 7 7 7 6 5 3 6 7 8 10 10 9 10 11 12 12 11 12 12 11 11
8 8 7 8 8 8 9 8 8 7 7 7 7 8 10 10 10 10 10 9 10 9 8 7 7 7 6 6 7 7 7 7 9 10 9 9 9 10 11 11 11 11 12 12 12
8 8 8 8 8 9 8 8 8 8 5 7 7 8 10 10 9 9 10 8 8 8 9 8 7 8 8 7 7 7 7 8 9 11 10 10 11 12 12 12 12 12 11 12 12
8 8 8 8 9 9 8 8 8 8 5 7 8 8 9 10 9 8 9 8 7 8 8 8 8 9 9 7 8 8 8 8 8 10 10 10 10 12 14 13 14 11 12 12 12
8 8 8 8 9 8 8 8 8 8 5 8 9 9 9 9 8 10 9 9 8 7 7 8 9 8 8 6 7 6 9 9 9 9 11 11 11 12 13 12 13 12 12 12 12
8 8 8 8 7 7 7 7 8 7 7 9 8 9 9 8 10 8 9 9 9 9 8 9 9 9 6 6 7 7 10 10 9 9 10 11 11 12 13 12 15 15 12 11 12
8 8 7 7 7 7 7 7 7 5 6 7 7 8 8 8 9 9 9 10 10 8 9 8 10 9 9 10 8 10 9 9 9 10 11 10 10 13 12 15 16 12 11 11 11
8 8 8 7 6 7 7 7 5 3 11 9 8 8 8 8 8 8 8 8 8 9 8 10 10 10 10 9 9 8 10 10 7 8 11 11 12 13 14 17 16 13 8 12 11
9 8 8 7 7 7 7 4 4 8 9 11 11 10 9 9 9 9 9 8 8 8 9 9 8 11 11 12 12 11 11 10 12 12 13 13 11 15 16 16 16 13 13 12 12
9 8 8 7 7 7 4 2 5 8 9 9 9 9 10 10 9 9 8 8 9 8 9 8 9 12 13 12 13 11 10 12 11 11 11 12 13 15 15 15 15 15 14 11 12
8 7 7 7 7 6 3 6 7 10 10 9 9 10 7 7 8 7 9 10 8 9 9 9 9 10 11 12 13 12 13 12 11 12 12 12 12 13 13 13 13 13 14 13 13
8 6 7 7 7 3 1 4 7 10 9 9 8 7 6 6 6 7 8 10 9 8 8 8 8 9 11 11 10 9 10 10 10 10 12 12 11 13 12 13 13 13 13 13 13
7 7 6 6 3 1 3 5 8 8 9 8 8 8 7 8 6 5 7 10 9 8 7 8 7 7 8 11 10 9 9 8 9 8 9 9 11 11 13 13 14 12 12 13 13
6 6 6 6 3 -1 4 6 8 9 9 9 8 8 9 8 7 7 9 10 10 8 7 8 7 7 7 8 10 9 10 10 9 9 9 9 11 14 13 12 12 10 10 10 10
4 6 5 1 1 4 5 5 7 8 8 8 6 8 8 6 7 6 8 9 9 9 10 8 7 7 7 8 8 7 8 8 8 7 8 8 9 11 11 11 8 8 8 8 7
2 5 3 3 2 0 3 2 3 4 6 7 6 6 5 5 5 6 7 6 7 9 7 6 6 6 6 6 7 7 7 7 7 7 7 8 8 9 7 6 5 6 6 6 7
3 4 2 3 3 3 4 4 0 3 5 4 5 4 5 5 5 5 5 5 6 6 6 5 4 6 6 7 7 7 7 7 7 7 8 8 8 6 7 6 4 4 4 4 4
3 3 3 3 3 3 3 5 4 5 5 5 5 5 5 5 4 5 4 5 5 4 5 5 4 4 5 6 6 5 7 7 8 6 5 7 6 5 5 5 3 3 3 3 3
Height
824 823 822 821 820 819 818 816 815 813 812 810 809 808 807 805 803 801 801 802 802 802 801 799 797 797 795 797 798 799 816 822 808 805 793 791 797 789 786 785 781 778 775 770 766
825 823 821 820 818 818 817 815 814 813 812 811 810 809 808 806 804 803 803 802 802 801 800 799 800 800 802 801 801 807 820 808 797 795 797 796 796 791 788 786 779 778 773 770 768
826 824 822 820 819 818 816 816 814 813 812 811 810 809 807 805 805 802 802 803 803 802 801 801 802 800 802 801 801 802 806 799 791 792 793 791 787 788 784 773 778 771 770 770 767
826 823 821 819 818 816 815 814 813 812 811 809 808 807 805 803 806 800 801 802 803 803 802 802 802 804 805 807 803 808 798 796 792 792 792 789 782 778 774 760 765 766 766 765 763
826 822 820 818 816 815 813 812 811 810 810 809 807 805 804 805 800 799 800 802 802 803 802 803 803 804 808 807 807 806 800 796 795 793 791 787 778 776 751 759 765 761 758 757 759
825 821 819 816 813 811 810 809 808 808 808 808 807 806 805 807 797 798 799 801 802 802 803 804 804 804 806 807 808 802 802 797 791 787 787 782 762 775 726 754 757 757 752 746 748
824 821 818 815 811 809 808 806 806 806 806 806 806 805 805 800 795 797 799 800 801 801 803 804 805 805 806 809 805 804 804 797 784 780 785 775 752 750 735 751 750 748 746 743 734
825 821 817 813 810 808 805 803 803 803 804 805 805 805 803 796 796 796 798 800 801 802 802 803 803 804 805 806 805 803 802 798 777 775 775 781 741 743 740 742 738 736 733 733 731
822 819 817 814 811 807 804 801 800 800 801 802 803 804 801 795 795 795 796 797 799 801 802 802 803 806 808 811 818 809 803 799 781 765 771 777 744 727 727 731 723 721 717 717 718
824 820 816 810 808 806 803 801 800 799 799 800 802 806 796 793 791 792 795 798 799 799 801 803 805 808 807 810 822 822 804 788 779 764 767 767 732 712 721 721 708 704 702 703 701
822 818 815 811 807 802 800 798 802 801 799 794 791 792 789 789 791 792 793 796 798 800 802 803 807 798 795 796 792 792 792 785 763 761 763 758 728 710 701 710 703 695 689 684 681
819 816 813 810 806 804 802 801 800 801 798 786 788 788 787 787 790 791 794 798 798 800 796 800 795 782 785 791 795 793 789 773 750 747 753 737 701 701 681 684 687 679 670 664 663
818 815 811 807 803 805 804 804 802 800 802 785 781 783 783 786 786 786 790 794 797 797 796 793 781 774 780 785 786 781 777 764 756 738 742 729 689 674 659 665 657 654 647 645 643
819 815 812 807 806 805 804 805 803 802 809 783 780 781 781 781 784 780 784 788 793 794 793 789 776 777 777 782 781 783 752 754 749 746 727 728 699 658 660 658 644 637 630 617 616
819 816 813 807 808 807 808 806 805 805 816 782 783 781 779 783 778 779 781 784 784 782 790 773 768 769 781 772 767 765 743 744 741 738 732 709 716 669 659 648 624 617 608 604 597
817 815 811 809 807 809 807 805 805 820 814 789 784 783 784 781 778 779 780 781 779 780 776 770 763 762 756 749 755 743 748 737 728 726 719 705 713 657 659 634 609 612 600 594 592
815 813 810 809 809 806 805 807 823 840 781 790 785 781 783 781 777 776 778 779 778 772 772 758 753 750 748 752 745 751 742 737 754 746 704 693 688 657 641 624 610 593 589 580 580
814 812 810 808 805 803 802 813 832 796 785 774 771 773 777 772 772 773 772 772 771 770 766 761 767 738 737 735 734 734 731 735 712 698 678 680 683 646 637 623 607 588 570 577 576
812 810 807 805 804 803 807 835 809 791 782 781 775 776 767 765 770 769 771 767 759 763 760 761 751 733 727 730 729 729 734 716 711 702 693 676 656 640 634 618 605 588 573 580 582
811 807 806 806 806 807 820 807 799 782 780 780 783 771 782 779 775 779 765 752 758 758 757 755 750 739 732 727 719 723 718 713 710 697 688 673 668 654 645 625 612 598 584 581 579
809 809 806 805 807 814 833 815 795 782 783 786 783 784 787 787 782 778 767 756 756 761 763 762 756 746 736 732 736 736 728 729 720 712 690 678 669 652 654 638 625 614 599 581 583
810 812 808 806 819 824 819 804 792 786 785 785 783 783 783 774 785 785 769 755 755 760 764 760 761 755 749 726 731 733 737 740 736 728 723 707 671 651 650 649 635 625 618 596 589
810 808 808 808 823 833 808 799 792 787 784 785 783 781 775 774 779 772 761 753 754 757 762 758 763 760 753 739 730 734 733 729 733 728 715 708 673 645 653 652 647 640 632 624 614
813 811 811 812 817 813 810 804 796 786 785 782 786 779 774 782 773 775 764 756 755 756 754 758 757 755 750 743 745 744 737 730 737 738 715 708 686 671 665 664 668 660 646 637 637
814 813 815 819 818 825 814 814 813 802 789 786 784 783 784 780 776 771 764 766 761 756 759 762 760 755 749 747 746 741 736 731 731 726 726 703 696 691 689 689 686 677 658 654 644
817 816 818 813 815 813 810 807 818 804 797 793 789 786 784 781 774 770 770 769 765 760 758 761 764 750 747 743 740 736 727 725 722 717 710 704 701 709 696 691 691 684 675 668 658
815 815 816 814 812 813 808 801 801 798 791 788 786 785 778 772 773 766 768 763 763 763 759 757 760 760 747 743 744 742 724 717 709 720 724 710 717 713 706 702 699 701 695 686 681
Wind_Speed
11 10 9 9 9 9 7 6 6 6 7 8 8 10 11 12 14 4 2 2 4 1 2 3 7 7 4 3 3 3 3 3 4 5 4 4 4 5 3 8 1 4 5 11 20
11 10 10 9 9 9 8 7 6 6 7 7 8 9 10 11 10 2 2 5 3 3 4 5 4 4 3 2 2 4 3 6 5 3 3 6 7 9 6 12 13 10 5 17 24
12 10 10 10 9 9 9 9 7 6 6 6 7 9 10 9 2 4 7 5 4 4 5 4 1 2 3 2 1 2 5 4 5 7 7 14 17 6 14 20 9 14 5 8 12
16 13 10 9 10 8 9 8 8 7 6 5 6 9 9 4 3 3 9 8 5 3 3 4 3 2 2 2 2 3 7 6 5 8 11 16 14 17 18 25 17 16 16 7 12
17 18 15 10 11 11 9 8 8 6 6 6 6 8 5 4 5 8 7 7 4 3 6 3 4 2 2 3 6 5 5 8 11 12 11 14 21 20 29 20 14 19 22 21 14
18 20 18 13 11 11 9 7 6 6 6 5 4 5 2 3 3 12 11 7 4 4 3 4 2 1 0 2 1 3 10 16 15 22 16 22 29 11 30 4 13 15 20 23 18
19 19 19 15 12 11 8 6 6 6 6 5 4 3 2 8 4 12 10 4 5 3 2 3 5 2 3 5 3 6 14 17 19 17 9 9 26 24 32 22 23 24 22 22 29
20 20 20 18 15 13 9 8 6 5 5 5 3 2 5 3 8 12 11 7 3 3 2 2 2 2 2 3 5 6 5 6 6 4 6 7 24 8 9 10 21 24 22 21 25
17 19 21 22 19 14 11 8 6 4 5 4 2 2 7 1 5 14 14 5 8 7 5 3 3 1 2 1 3 4 7 7 8 5 6 9 22 3 10 14 21 22 22 21 23
19 20 20 18 18 16 14 10 3 1 3 4 3 2 3 3 4 10 12 6 2 2 1 3 2 2 4 4 5 6 6 7 14 3 4 12 36 35 25 24 29 27 26 24 24
20 20 21 19 19 14 11 1 3 1 4 7 6 3 2 5 6 5 8 7 2 2 4 4 4 13 15 14 7 5 11 19 27 17 18 21 34 33 30 24 27 29 29 28 29
19 19 21 21 20 9 5 2 1 3 7 10 12 6 6 5 3 4 11 4 5 7 6 3 12 17 10 12 12 17 20 26 25 15 8 18 37 27 33 29 25 29 31 32 30
18 20 21 23 13 3 5 2 5 2 3 5 4 4 5 11 5 7 13 5 6 8 10 12 6 2 4 11 15 20 21 24 23 24 16 25 26 11 17 12 21 24 34 32 32
19 20 24 22 3 8 2 6 5 1 3 3 3 0 3 3 3 7 19 5 4 5 6 11 14 12 7 13 12 16 12 21 21 14 12 5 14 28 12 16 23 23 24 27 34
19 20 23 13 8 4 8 10 6 1 4 1 2 0 2 4 1 3 10 2 7 7 4 8 6 6 7 9 10 12 7 11 18 19 18 17 8 9 8 19 26 20 25 21 23
18 19 18 11 7 5 11 8 2 4 6 1 3 3 2 4 2 5 6 3 3 6 11 20 2 5 7 7 10 9 7 15 17 6 6 9 7 9 4 22 28 13 27 17 17
17 17 13 9 6 11 9 3 4 3 6 6 3 3 4 4 5 7 7 7 5 4 6 4 10 7 6 5 4 3 5 5 4 2 8 5 7 11 11 26 26 24 26 14 16
17 15 6 5 7 4 1 4 3 6 3 1 3 5 6 5 5 6 3 6 12 8 3 3 7 6 5 4 6 7 4 3 7 6 17 11 6 4 15 23 24 23 9 10 15
14 7 3 4 5 2 4 3 7 5 3 4 8 3 2 1 1 3 7 5 5 14 6 3 5 4 7 3 1 3 6 5 9 10 7 3 7 5 19 27 29 27 17 12 11
9 5 3 4 2 3 4 5 4 3 2 1 3 1 2 2 2 1 2 2 1 4 0 2 6 3 7 4 6 3 3 4 3 5 6 4 5 6 20 28 30 31 30 3 13
3 3 0 1 1 4 2 5 5 4 1 3 3 4 3 3 2 2 5 3 2 3 3 4 4 2 3 4 9 6 2 4 5 4 4 7 4 3 13 23 27 29 27 16 4
1 3 1 1 3 1 2 4 5 5 1 4 2 3 4 2 3 4 5 3 4 5 1 1 4 4 8 12 7 4 1 3 3 7 7 7 8 5 17 21 25 22 25 26 8
1 2 2 2 1 2 4 4 4 3 3 3 3 6 2 4 2 4 4 4 3 4 3 2 2 5 7 5 1 2 7 7 10 10 9 8 6 19 25 24 21 18 21 21 23
1 3 2 3 1 2 4 5 4 4 4 3 4 7 2 3 5 4 4 1 2 3 9 2 4 7 9 7 5 10 16 18 7 6 10 12 24 25 24 22 14 17 18 20 17
2 2 1 4 4 2 1 1 4 5 2 3 4 6 5 4 3 5 4 5 5 8 1 4 5 6 11 12 10 14 17 19 17 14 11 21 24 17 19 14 12 11 18 19 21
1 1 0 2 1 3 3 2 5 6 3 4 6 8 4 5 6 10 9 4 8 4 4 2 5 4 6 9 12 16 18 16 17 14 11 10 11 17 17 13 17 17 17 17 20
2 1 0 3 2 1 4 3 4 12 6 7 8 15 18 13 12 12 8 11 7 5 5 4 2 3 9 2 6 10 5 4 3 3 5 7 9 11 13 13 16 15 14 15 14
Wind_Direction
12 8 2 357 349 338 335 332 335 338 337 337 340 338 334 332 330 320 278 197 177 47 57 66 37 17 56 50 28 79 83 222 241 180 250 316 13 316 311 260 313 275 326 303 311
4 5 4 356 346 334 325 322 322 325 329 329 332 331 329 330 324 238 143 149 144 128 72 45 9 9 55 54 36 94 165 226 213 208 266 292 293 299 290 280 280 283 256 312 317
15 5 360 360 349 330 321 313 309 312 317 320 327 328 330 329 242 180 173 167 137 106 99 91 58 38 58 31 359 132 221 203 233 273 298 293 286 268 283 276 217 272 233 284 291
23 21 4 352 351 333 319 306 302 303 306 305 320 332 337 351 248 159 155 147 132 109 104 58 25 56 82 14 332 309 256 266 305 307 295 281 289 275 261 260 272 269 278 249 267
14 14 6 349 350 340 322 305 291 291 293 299 320 346 5 3 252 163 153 152 155 91 64 43 43 57 11 360 330 226 282 272 282 296 283 290 268 266 261 261 261 275 274 268 262
6 5 359 352 343 342 328 305 294 281 277 276 291 334 85 285 143 165 181 173 136 97 61 41 42 47 219 268 231 322 312 302 292 283 283 275 271 266 262 198 247 245 262 271 260
1 359 359 353 345 339 330 320 305 285 269 267 281 311 245 241 197 177 187 180 169 126 92 23 28 62 356 323 305 297 302 295 270 264 254 270 273 237 262 258 251 251 249 251 268
355 355 356 356 348 341 337 329 301 278 263 269 290 224 248 249 204 181 183 168 180 193 209 289 354 116 152 307 304 269 260 290 278 158 239 126 275 328 265 240 243 246 245 244 245
352 353 353 350 346 341 333 319 299 269 249 231 247 159 270 260 210 209 199 167 192 224 236 185 96 173 154 201 290 240 266 258 288 203 200 180 271 300 229 236 249 248 242 236 237
349 348 347 347 344 337 332 316 277 293 197 203 273 22 252 230 183 180 187 182 158 204 181 133 158 215 220 150 241 239 257 257 271 246 227 251 265 272 265 258 255 253 245 237 233
351 346 344 342 338 332 335 360 21 351 233 200 188 240 175 141 139 139 152 122 146 215 214 186 227 233 222 210 232 265 268 270 269 272 274 254 264 273 276 259 261 255 253 243 234
343 346 342 339 333 330 336 24 151 239 297 244 241 245 261 190 136 180 159 158 184 217 220 222 247 245 245 231 235 254 266 269 282 266 231 276 278 283 276 272 262 264 253 245 240
339 341 343 338 332 352 334 5 332 289 273 288 193 191 203 186 228 204 160 173 205 227 220 230 237 275 222 249 234 252 256 265 265 291 278 278 284 260 302 257 264 252 256 250 237
338 341 343 338 360 339 62 342 332 336 9 247 192 289 133 124 258 183 180 163 205 237 232 253 260 263 271 254 216 255 248 250 268 295 304 106 292 312 325 305 285 272 260 260 232
339 340 347 350 320 11 341 331 322 350 348 222 160 98 174 172 360 180 180 156 229 217 177 251 260 247 232 232 166 236 268 272 274 273 288 275 246 277 333 296 308 299 281 276 225
334 340 343 341 328 325 329 325 328 37 269 80 120 176 174 212 240 139 174 237 240 246 232 251 249 248 232 273 198 261 309 277 268 251 248 246 185 283 290 305 312 315 288 263 215
328 335 334 338 331 321 333 27 21 119 345 327 269 180 233 210 207 185 185 195 212 232 213 256 243 236 209 274 170 136 296 304 329 239 241 201 281 259 271 323 320 306 275 228 213
325 333 338 334 328 326 93 64 108 223 230 268 256 261 216 154 241 194 227 244 223 215 273 242 322 175 184 232 275 265 211 248 287 284 293 279 235 262 344 330 333 318 324 216 196
324 325 299 305 325 285 76 79 209 212 224 298 308 238 221 201 265 209 225 246 236 187 215 238 241 300 281 333 247 293 263 274 267 258 273 238 287 307 337 346 350 356 355 216 236
320 304 264 328 335 360 64 257 272 257 300 280 258 359 289 273 327 61 255 232 302 170 70 297 281 255 295 285 293 208 333 305 258 297 290 294 284 317 355 351 351 351 353 36 211
300 344 53 32 32 51 175 242 287 290 260 222 277 297 262 264 221 258 265 314 62 61 35 334 242 269 3 289 332 343 5 330 284 251 292 335 274 24 14 0 353 350 348 354 160
95 301 35 19 34 60 242 213 295 284 210 295 295 251 226 258 272 246 238 244 147 153 256 181 301 278 234 272 210 138 94 21 331 323 289 262 267 137 1 0 348 351 349 353 357
256 269 46 92 237 273 280 272 256 273 249 250 265 223 240 272 278 284 317 327 210 188 195 192 263 304 328 349 105 10 324 304 302 259 266 284 271 332 334 343 347 349 356 355 9
53 320 337 46 28 268 312 276 281 327 261 224 230 268 217 265 212 266 249 336 6 277 314 115 227 227 255 256 284 292 305 292 285 275 290 273 299 314 328 332 353 350 357 351 14
56 268 76 303 321 287 206 280 289 289 278 262 285 247 201 249 250 238 255 329 299 286 284 189 259 240 260 273 279 275 277 282 287 263 270 298 296 334 336 351 352 347 2 1 355
76 327 123 279 247 251 232 269 210 292 277 272 250 274 237 248 216 283 284 250 256 277 201 228 259 251 262 262 267 282 281 278 267 285 276 297 297 357 333 351 13 1 4 2 352
14 8 29 273 209 284 260 236 292 316 256 263 311 307 292 259 255 264 250 264 234 228 225 220 252 311 278 291 297 296 282 292 301 74 316 332 330 331 348 4 5 360 7 360 354